OBJECT J, 64884

Orbit data source: Space-Track

You're viewing an Uncataloged Satellite

Recently launched and/or uncataloged satellites may have evolving metadata. Metadata may include but not limited to: Owner, Maufacturer, Bus, Motor, and Mission.

OBJECT J, 64884 is a satellite in SSO that was launched on Fri, 25 Jul 2025 UTC via a SOYUZ-2-1B launch vehicle from the Vostochny Cosmodrome (VOSTO). Unknown objects in Earth's orbit typically refer to objects detected orbiting the Earth but have not yet been identified or cataloged. These objects could be anything from previously untracked satellites, spent rocket stages, debris from satellite collisions, or even natural meteoroids temporarily captured by Earth's gravity.

Loading next visibility...
Identifier
64884, 2025-155J
Orbit
SSO
Country
Flag of TBDTBD
Related business
None
Manufacturer
Unknown
Mission
Operational Commercial Technology
Bus & Motor
Unknown
Mass
Unknown
Launch date (UTC)
2025-07-25 (8 months ago)
Launch vehicle
SOYUZ-2-1B
Launch site
Vostochny Cosmodrome (VOSTO)
Object type
Unknown
Shape & HBR
Box, 1.1 m
Radar Cross Section
0.035 m², Small (<0.1 m²)

Expand to show TLE details & history
Last TLE update: 7 hours ago

TLE from 7 hours ago
0 OBJECT J
1 64884U 25155J   26073.90135375  .00013683  00000-0  50704-3 0  9999
2 64884  97.4474  42.2835 0009377 134.9597 225.2404 15.27711118 66358
Epoch: 2026-03-14T21:37Z
TLE epoch observation values (Epoch: 2026-03-14T21:37:56.963Z)
Latitude
-0.00006°
Longitude
-94.71972°
Altitude
490.29 km
Speed
7.617 km/s
True Right ascension
02h 49m 08s
True Declination
0° 00' 00"
Sunlit
Object was in daylight at epoch
Visualization orbit readout
Latitude
Unknown
Longitude
Unknown
Altitude
Unknown
Speed
Unknown
Apparent Right ascension
Unknown
Apparent Declination
Unknown
Sunlit
N/A
Visualization observer readout
Local Sidereal Time
08:50:30
Azimuth
Unknown
Elevation
Unknown
Doppler factor
Unknown
Orbital elements
Apogee altitude
486.044 km
Perigee altitude
473.183 km
Semi-major axis
6,857.751 km
Eccentricity
0.00094
Inclination
97.4474°
RAAN
42.2835°
Arg. of periapsis
134.9597°
True anomaly
225.16416°
Mean anomaly
225.2404°
Eccentric anomaly
225.20228°
Mean motion
3.82182 °/min
Orbital period
94.2 mins
BSTAR
0.00050704
Loading maneuver chart data...
Computing Atmospheric mass density...
Loading historical data...
Loading historical data...
Loading historical data...
Loading historical data...
Loading historical data...
Loading historical data...
Loading historical data...

Documentation

Showing up to 5 results
|